Nellis AFB, NV

1:40 AM PDT on August 17, 2017 (GMT -0700)
Nellis Air Force Base

Weather History for KLSV - April, 2013

Change the Weather History Date:

Sunday, April 21, 2013

  Actual Average Record
Temperature  
Mean Temperature 71 °F -  
Max Temperature 88 °F 77 °F 96 °F (2012)
Min Temperature 54 °F 53 °F 46 °F (2001)
Cooling Degree Days 6    
Growing Degree Days 21 (Base 50)    
Moisture  
Dew Point 20 °F    
Average Humidity 15    
Maximum Humidity 25    
Minimum Humidity 7    
Precipitation  
Precipitation 0.00 in - - ()
Sea Level Pressure  
Sea Level Pressure 29.90 in    
Wind  
Wind Speed 4 mph (North)    
Max Wind Speed 8 mph    
Max Gust Speed -    
Visibility 10 miles    
Events      
Averages and records for this station are not official NWS values.
T = Trace of Precipitation, MM = Missing Value Source: NWS Daily Summary

Daily Weather History Graph

Daily Weather History Graph

Search for Another Location

Airport or City:

Trip Planner

Search our weather history database for the weather conditions in past years. The results will help you decide how hot, cold, wet, or windy it might be!

Date:

Astronomy

Apr. 21, 2013 Rise Set
Actual Time 5:58 AM PDT 7:19 PM PDT
Civil Twilight 5:31 AM PDT 7:46 PM PDT
Nautical Twilight 4:59 AM PDT 8:18 PM PDT
Astronomical Twilight 4:26 AM PDT 8:52 PM PDT
Moon 3:16 PM PDT (4/21) 3:15 AM PDT (4/21)
Length of Visible Light 14h 14m
Length of Day
13h 20m
Waxing Gibbous, 81% of the Moon is Illuminated
Apr 21
Waxing Gibbous
Apr 25
Full
May 2
Last Quarter
May 9
New
May 17
First Quarter

Hourly Weather History & Observations

Time (PDT) Temp. Dew Point Humidity Pressure Visibility Wind Dir Wind Speed Gust Speed Precip Events Conditions
12:58 AM 59.2 °F 19.4 °F 21% 29.94 in 10.0 mi NE 4.6 mph - N/A   Clear
1:58 AM 55.4 °F 19.4 °F 25% 29.94 in 10.0 mi NE 1.2 mph - N/A   Clear
2:58 AM 54.1 °F 19.2 °F 25% 29.94 in 10.0 mi ENE 8.1 mph - N/A   Clear
3:58 AM 58.5 °F 20.1 °F 23% 29.94 in 10.0 mi NE 3.5 mph - N/A   Clear
4:58 AM 59.4 °F 20.3 °F 22% 29.95 in 10.0 mi WNW 1.2 mph - N/A   Clear
5:58 AM 57.6 °F 19.2 °F 23% 29.97 in 10.0 mi WNW 5.8 mph - N/A   Clear
6:58 AM 59.0 °F 19.6 °F 22% 30.00 in 10.0 mi North 4.6 mph - N/A   Clear
7:58 AM 63.3 °F 20.7 °F 19% 30.01 in 10.0 mi Calm Calm - N/A   Clear
8:58 AM 69.6 °F 21.9 °F 16% 30.01 in 10.0 mi NNW 2.3 mph - N/A   Clear
9:58 AM 73.4 °F 21.9 °F 14% 29.99 in 10.0 mi NW 1.2 mph - N/A   Clear
10:58 AM 76.8 °F 22.8 °F 13% 29.99 in 10.0 mi Variable 4.6 mph - N/A   Clear
11:58 AM 79.3 °F 23.0 °F 12% 29.97 in 10.0 mi West 2.3 mph - N/A   Clear
12:58 PM 81.3 °F 20.7 °F 11% 29.94 in 10.0 mi Variable 2.3 mph - N/A   Clear
1:58 PM 84.0 °F 19.8 °F 9% 29.91 in 10.0 mi Variable 5.8 mph - N/A   Clear
2:58 PM 87.1 °F 19.4 °F 8% 29.86 in 10.0 mi SW 8.1 mph - N/A   Clear
3:58 PM 86.7 °F 19.2 °F 8% 29.82 in 10.0 mi East 5.8 mph - N/A   Clear
4:58 PM 88.2 °F 17.2 °F 7% 29.79 in 10.0 mi ESE 8.1 mph - N/A   Clear
5:58 PM 87.4 °F 19.8 °F 8% 29.79 in 10.0 mi ESE 4.6 mph - N/A   Clear
6:58 PM 86.2 °F 18.9 °F 8% 29.77 in 10.0 mi ESE 6.9 mph - N/A   Clear
7:58 PM 84.9 °F 17.8 °F 8% 29.79 in 10.0 mi SW 5.8 mph - N/A   Clear
8:03 PM 82.4 °F 17.6 °F 9% 29.84 in 7.0 mi SSW 4.6 mph - N/A   Clear
8:58 PM 76.1 °F 20.3 °F 12% 29.80 in 7.0 mi South 5.8 mph - N/A   Clear
9:58 PM 77.0 °F 21.2 °F 12% 29.81 in 10.0 mi West 4.6 mph - N/A   Clear
10:58 PM 70.9 °F 20.5 °F 15% 29.81 in 10.0 mi NE 5.8 mph - N/A   Clear
11:58 PM 67.8 °F 20.5 °F 17% 29.81 in 10.0 mi NNW 3.5 mph - N/A   Clear